Content
SEND FEEDBACK

Daily
Averages
Monthly
Summary
United States of America

OTTO, WYOMING


Home > North America > United States > Wyoming
Elevation: 3794 feet     Latitude: 44 30N     Longitude: 108 03W

WEATHER
 
SELECT A DAY
Number of Records: 146,319;   Date Range: 9/17/98 - 8/28/14
 
SHARE

PRINT THIS DATA

[ ← Previous Day ]
WEATHER ALMANAC - FEBRUARY 13, 2013
[ Next Day → ]
[ °C ]   °F
Weather ElementAverageHighLow
Temperature25.9 °F37.9 °F (1:53 pm)12.9 °F (3:53 am)
Dewpoint18.1 °F30 °F (7:53 pm)7 °F (3:53 am)
Humidity73.1 %92 % (7:53 pm)48 % (1:53 pm)
Barometer30.10 in30.14 in (1:53 am)29.97 in (6:23 pm)
Wind Speed5.1 mph9.2 mph (4:53 pm)
Weather ElementAverage
Visibility9.9 mi
Wind DirectionS (175.4 °)

Weather ElementTotal
Precipitation---
Heating Degree Days39.6 (Base 65)
Averaged from 24 records on February 13, 2013
WEATHER CONDITIONS BREAKOUT
WIND DIRECTION BREAKOUT
WEATHER BY HOUR - FEBRUARY 13, 2013
[ °C ]   °F
Local TimeTemperatureDewpointHumidityBarometerVisibilityWind DirectionWind SpeedGust SpeedPrecipitationEventsConditions
1:53 AM15.1 °F8.1 °F74 %30.14 in10.0 miESE (120°)4.6 mphClear
2:53 AM14.0 °F8.1 °F77 %30.14 in10.0 miCalmClear
3:53 AM12.9 °F7.0 °F77 %30.12 in10.0 miESE (120°)4.6 mphClear
4:53 AM12.9 °F7.0 °F77 %30.11 in10.0 miSE (140°)4.6 mphMostly Cloudy
5:53 AM12.9 °F7.0 °F77 %30.13 in10.0 miESE (110°)4.6 mphMostly Cloudy
6:53 AM12.9 °F8.1 °F81 %30.13 in10.0 miSSE (160°)3.5 mphMostly Cloudy
7:53 AM12.9 °F8.1 °F81 %30.13 in10.0 miCalmPartly Cloudy
8:53 AM15.1 °F9.0 °F77 %30.12 in10.0 miSSW (210°)3.5 mphMostly Cloudy
9:53 AM19.9 °F10.9 °F68 %30.11 in10.0 miENE (70°)3.5 mphOvercast
10:53 AM24.1 °F14.0 °F65 %30.10 in10.0 miSSE (160°)4.6 mphOvercast
11:53 AM28.9 °F16.0 °F58 %30.07 in10.0 miCalmOvercast
12:53 PM32.0 °F18.0 °F56 %30.06 in10.0 miENE (70°)3.5 mphOvercast
1:53 PM37.9 °F19.9 °F48 %30.04 in10.0 miEast (90°)4.6 mphMostly Cloudy
2:53 PM35.1 °F21.9 °F59 %30.04 in10.0 miSW (230°)8.1 mphOvercast
3:53 PM34.0 °F21.0 °F59 %30.07 in10.0 miNNE (20°)8.1 mphOvercast
4:53 PM35.1 °F27.0 °F72 %30.08 in10.0 miNorth (350°)9.2 mph0.00 inOvercast
5:53 PM36.0 °F27.0 °F70 %30.08 in10.0 miNNW (330°)9.2 mphOvercast
6:23 PM35.6 °F28.4 °F75 %29.97 in8.0 miNW (310°)9.2 mph0.00 inSnowLight Snow
6:53 PM34.0 °F28.9 °F82 %30.11 in10.0 miWNW (290°)9.2 mph0.00 inOvercast
7:53 PM32.0 °F30.0 °F92 %30.13 in10.0 miWest (260°)5.8 mph0.00 inOvercast
8:53 PM33.1 °F27.0 °F78 %30.13 in10.0 miWNW (300°)8.1 mphOvercast
9:53 PM33.1 °F27.0 °F78 %30.14 in10.0 miNW (320°)6.9 mphOvercast
10:53 PM32.0 °F28.0 °F85 %30.14 in10.0 miWest (280°)4.6 mphOvercast
11:53 PM30.9 °F28.0 °F89 %30.14 in10.0 miWest (270°)3.5 mphOvercast
Hourly data recorded from KGEY, located miles away from Otto, Wyoming







STORIES FROM OUR PARTNERS